Weather Roundup
Issued by NWS Chicago, IL

Home | Current Version | Previous Version | Graphics & Text | Print | Product List | Glossary On
Versions: 1 2 3 4 5 6 7 8 9 10 11 12 13 14 15 16 17 18 19 20 21 22 23 24 25 26 27 28 29 30 31 32 33 34 35 36 37 38 39 40 41 42 43 44 45 46 47 48 49 50
000
NZUS59 KLOT 230808
HRRLOT

CHICAGO AREA WEATHER ROUNDUP
NATIONAL WEATHER SERVICE CHICAGO/ROMEOVILLE IL
300 AM CDT SAT JUL 23 2016

NOTE: "FAIR" INDICATES FEW OR NO CLOUDS BELOW 12,000 FEET WITH NO
SIGNIFICANT WEATHER AND/OR OBSTRUCTIONS TO VISIBILITY.

* THESE STATIONS ARE NOT UNDER NWS QUALITY CONTROL. THEY ALSO MAY NOT
  REPORT WEATHER SUCH AS PRECIPITATION OR FOG.

ILZ005-006-012>014-019>023-230900-
NORTHEAST ILLINOIS

CITY           SKY/WX    TMP DP  RH WIND       PRES   REMARKS
OHARE          PTCLDY    80  76  87 W3        29.98F HX  86
MIDWAY         PTCLDY    81  75  82 W6        29.98F HX  87
AURORA         PTCLDY    76  74  93 CALM      29.99F
LANSING*       PTCLDY    75  72  91 S3        29.99F
JOLIET*        MOCLDY    77  76  97 CALM      29.99F FOG
WAUKEGAN       PTCLDY    78  75  90 CALM      29.98S HX  81
DUPAGE AIRPORT PTCLDY    77  75  93 CALM      29.99F
WHEELING       CLEAR     80  75  84 CALM      29.99F HX  85
MORRIS*        CLOUDY    77  75  93 CALM      29.98F
LEWIS AIRPORT* PTCLDY    76  73  89 CALM      29.99F
NORTHERLY ISL    N/A     81  74  79 W3          N/A  HX  86
$$

WIZ051-052-058>065-066-070>072-230900-
SOUTHEAST WISCONSIN

CITY           SKY/WX    TMP DP  RH WIND       PRES   REMARKS
MILWAUKEE      PTCLDY    76  71  85 CALM      29.98S
KENOSHA*       CLEAR     75  74  96 CALM      29.99S
RACINE*        CLEAR     77  73  87 W3        29.99F
BURLINGTON     FOG       73  72  99 CALM      29.99S VSB 1/4
WAUKESHA       FOG       72  72 100 CALM      30.00S VSB 3/4
$$

INZ001>003-010>013-019-020-230900-
NORTHWEST INDIANA

CITY           SKY/WX    TMP DP  RH WIND       PRES   REMARKS
GARY*          CLEAR     79  79 100 CALM      29.99F HX  83
MICHIGAN CITY* NOT AVBL
RENSSELAER*    NOT AVBL
VALPARAISO     PTCLDY    76  73  91 SW3       30.01S
$$

LMZ740>746-230900-
SOUTHERN LAKE MICHIGAN

STATION/POSITION TIME  SKY/WX   TEMP WIND        PRES    VSBY
                                AIR  DIR/SP/G
                 (UTC)          (F)  (DEG/KT/KT) (MB)    (MI)
HARRISON CRIB    0700            84  270/  9/  9   N/A
BURNHAM HARBOR   0800            81  250/  3/  7   N/A
CALUMET HARBOR   0700            80  240/  2/  5 1015.0F
BURNS HARBOR     0700            79  220/  7/ 15 1015.9S
MICHIGAN CITY    0700            78  180/  7/  7   N/A
$$

ABBREVIATIONS USED IN REMARKS
   TC - TEMPERATURE IN CELSIUS
  WCI - WIND CHILL INDEX
   HX - HEAT INDEX
  VSB - VISIBILITY
$$



USA.gov is the U.S. government's official web portal to all federal, state and local government web resources and services.